CAPE
1872 2312 1884 1871 1696 1617 1660 1767 2040 2456 2620 2584 2411 2459 2423 2435 2452 2504 2612 2731 2846 2976 2328 2172 1732 1669 1782 2061 1948 2073 2343 2446 2365 2314 2366 2234 2008 1942 1937 2116 1913 1590 2210
2000 2453 1915 1968 1890 1733 1758 1782 2039 2463 2733 2766 2533 2453 2484 2500 2546 2615 2657 2768 2855 3061 2453 2208 1849 1688 1915 1987 1979 2107 2228 2219 2131 2272 2587 2271 2044 2025 1867 1864 1842 1703 2192
2555 2510 2575 1941 2047 1964 1865 1936 2104 2346 2706 2855 2761 2664 2653 2594 2652 2745 2742 2837 3093 3153 2551 2221 1904 1654 1794 1950 1979 2093 2125 2132 2099 2212 2226 1705 1857 2064 1937 1746 2162 2267 2087
2385 2513 2721 1864 2078 2112 1976 2010 2115 2316 2414 2716 2857 2837 2868 2815 2803 2835 2767 2692 2929 2796 2441 2275 1999 1731 1804 1821 1939 2007 1998 2052 1984 2008 1744 1748 1787 2094 2014 1845 1937 1917 1954
2576 2486 2505 1883 1972 2096 2021 1959 2032 2218 2225 2266 2600 2900 2980 3008 2997 2950 2702 2613 2862 2915 2448 2268 2141 2202 1811 1538 1712 1847 1868 1872 1860 1744 1684 1608 1737 2043 2021 1957 1821 2056 2102
2942 2743 1874 1912 2176 2192 2037 2030 2052 2112 2015 2087 2184 2686 2889 2660 2909 2918 2634 2695 2977 3000 2914 2788 2661 2270 1474 1385 1518 1692 1659 1666 1611 1698 1590 1844 1713 2086 2058 2369 2085 2001 1840
3205 3041 2484 1616 1726 2053 2334 2190 2074 2111 1979 1994 2173 2351 2655 2748 2512 2453 2434 2601 2831 2993 3028 2916 2705 1949 1355 1290 1440 1472 1428 1435 1576 1630 1612 1798 1877 2163 2094 2205 1924 1854 1902
2162 2120 2376 2043 1636 1562 1677 1883 2004 1915 1972 1911 1957 2265 2522 2507 2443 2324 2339 2424 2643 2790 2805 2691 2533 1821 1344 1253 1348 1253 1222 1200 1341 1589 1559 1795 1842 2094 2025 1985 1731 1719 1619
1611 1727 1894 2047 1807 1865 1654 1431 1409 1677 1669 1732 1779 1830 2120 2080 2056 2076 2143 2069 2194 2358 2561 2374 2352 1953 1368 1263 1192 1179 980 946 1598 1551 1392 1486 1817 2019 1937 2076 1694 1842 1867
612 1257 1508 1719 1878 2520 1764 1715 1517 1385 1324 1421 1508 1673 1673 1784 1902 1810 1851 1903 2000 2156 2281 2293 2197 1903 1431 1219 1077 1095 1069 1120 1849 1614 1571 1527 1751 2035 1944 2348 2008 1877 1759
0 37 386 988 1465 1832 2323 2052 1824 1745 1673 1536 1627 1625 1812 2295 2139 2095 1871 1684 1770 1905 1964 2069 2110 1769 1381 1108 1097 958 1013 1809 1519 1510 1477 1188 1659 1905 2083 2152 1896 1877 1801
0 0 0 1 70 126 324 557 1094 1013 1358 1182 1437 1801 2311 2446 2554 2146 1688 1700 1499 1609 1740 1758 1868 1731 1441 1686 1516 981 1561 1539 1557 1253 1103 1041 1325 1751 2241 2236 1902 1923 1551
0 0 0 0 0 0 0 0 57 245 387 680 1522 1596 1136 2072 2364 2413 2461 2606 2244 1367 1764 1580 1835 1976 1726 1675 1383 1871 1507 1472 1450 1372 916 578 1002 1618 1994 2150 2091 1997 1636
0 0 0 0 0 0 0 0 0 0 0 4 305 799 1522 1280 1109 1572 2150 1932 2161 2288 2067 2421 2505 2151 1771 1745 1650 1668 1707 1516 1455 1263 1039 405 389 1468 1921 1956 2148 2097 1805
0 0 0 0 0 0 0 0 0 0 0 0 0 0 111 589 995 906 787 1299 1951 1958 2033 1931 1840 1957 1888 1739 1673 1769 1736 1743 1498 1140 1154 689 456 696 1805 2145 2002 1948 1988
0 0 0 0 0 0 0 0 0 0 0 0 0 0 0 0 0 154 173 386 846 1529 1466 1627 1174 1258 1598 1629 1695 1608 1782 1482 1488 1395 1072 1091 698 442 748 1853 2347 2152 2128
0 0 0 0 0 0 0 0 0 0 0 0 0 0 0 0 0 0 0 4 262 192 664 301 584 147 548 1041 693 1667 1558 1616 1413 1420 1403 972 760 526 451 627 1589 1959 1914
0 0 0 0 0 0 0 0 0 0 0 0 0 0 0 0 0 0 0 0 0 3 42 103 0 0 18 146 94 94 1269 1275 1310 1334 1455 1352 931 683 455 416 531 1219 1427
0 0 0 0 0 0 0 0 0 0 0 0 0 0 0 0 0 0 0 0 0 0 0 44 162 1 2 0 0 26 24 856 1449 1392 1289 1368 1467 944 694 559 444 601 977
0 0 0 0 0 0 0 0 0 0 0 0 0 0 0 0 0 0 0 0 0 0 0 0 12 101 86 7 5 4 0 2 988 1192 1478 1583 1426 1414 1395 667 1047 722 463
0 0 0 0 0 0 0 0 0 0 0 0 0 0 0 0 0 0 0 0 0 0 0 0 0 4 55 127 9 25 197 475 1187 1163 1512 1727 1478 1362 1512 1362 1204 1179 829
0 0 0 0 0 0 0 0 0 0 0 0 0 0 0 0 0 0 0 0 0 0 0 0 2 0 0 160 198 442 321 303 862 1205 1407 1445 1428 1411 1396 1349 1226 985 1163
0 0 0 0 0 0 0 0 0 0 0 0 0 0 0 0 0 0 0 0 0 0 0 0 0 4 0 49 524 351 219 96 289 734 1514 1166 1503 1518 1581 1356 1277 1247 1209
0 0 0 0 0 0 0 0 0 0 0 0 0 0 0 0 0 0 0 0 0 0 0 0 0 0 2 0 83 483 970 557 223 457 749 1412 1413 1370 1617 1648 1437 1321 1248
0 0 0 0 0 0 0 0 0 0 0 0 0 0 0 0 0 0 0 0 0 0 0 0 0 0 0 2 1 48 576 893 977 686 461 752 1412 1166 1360 1564 1814 1546 1636
0 0 0 0 0 0 0 0 0 0 0 0 0 0 0 0 0 0 0 0 0 0 0 0 0 0 0 0 3 20 54 54 509 664 616 791 746 1027 1210 1423 1651 2032 1458
CIN
-33 -73 -158 -162 -181 -186 -174 -151 -123 -106 -81 -60 -62 -70 -81 -78 -68 -50 -27 -7 -1 -0 -2 -9 -35 -31 -19 -7 -13 -9 -0 -0 -0 -0 -0 -0 -0 -0 -0 -2 -22 -0 -0
-51 -52 -153 -140 -156 -183 -177 -161 -133 -102 -73 -57 -59 -60 -65 -78 -66 -49 -31 -12 -4 -0 -0 -11 -27 -34 -21 -13 -17 -12 -2 -2 -3 -2 -0 -0 -0 -0 -0 -14 -32 -4 -1
-39 -63 -64 -150 -126 -140 -152 -145 -135 -110 -75 -57 -51 -43 -42 -50 -62 -46 -28 -12 -0 -0 -2 -12 -26 -42 -34 -35 -23 -10 -4 -3 -4 -5 -7 -0 -0 -0 -0 -12 -3 -1 -2
-48 -44 -38 -175 -120 -111 -133 -142 -130 -103 -89 -61 -44 -36 -27 -26 -30 -37 -32 -22 -2 -1 -8 -13 -25 -41 -39 -32 -33 -18 -9 -4 -7 -9 -1 -0 -0 -0 -0 -4 -1 -0 -0
-24 -24 -50 -139 -119 -104 -114 -120 -114 -93 -91 -80 -55 -29 -18 -10 -7 -10 -35 -32 -3 -1 -7 -13 -16 -16 -44 -68 -37 -26 -23 -15 -14 -30 -0 -0 -0 -1 -0 -0 -1 -0 -6
-1 -4 -114 -103 -68 -64 -82 -77 -74 -68 -83 -81 -67 -34 -20 -36 -15 -2 -14 -17 -1 -0 -0 -0 -0 -12 -81 -90 -64 -37 -40 -34 -31 -0 -0 -3 -0 -13 -0 -0 -3 -6 -9
-0 -0 -13 -99 -88 -43 -17 -25 -30 -26 -47 -56 -46 -31 -16 -17 -26 -30 -13 -5 -1 -0 -0 -0 -1 -24 -76 -93 -63 -61 -54 -43 -5 -0 -0 -0 -0 -15 -0 -1 -5 -9 -6
-47 -36 -12 -23 -44 -44 -61 -36 -17 -17 -14 -19 -32 -25 -16 -16 -18 -25 -20 -9 -2 -2 -2 -3 -3 -26 -63 -72 -65 -72 -66 -64 -21 -0 -0 -0 -32 -7 -1 -6 -17 -16 -15
-62 -54 -41 -36 -46 -33 -27 -28 -47 -21 -15 -23 -22 -25 -20 -27 -22 -30 -26 -36 -33 -17 -5 -20 -13 -16 -44 -51 -53 -48 -77 -80 -0 -0 -0 -0 -63 -7 -0 -3 -16 -11 -8
-164 -76 -54 -33 -20 -0 -15 -13 -10 -17 -32 -30 -39 -22 -16 -23 -20 -20 -23 -23 -33 -33 -12 -18 -18 -22 -26 -33 -32 -23 -30 -29 -0 -0 -0 -1 -53 -6 -0 -0 -4 -8 -7
-0 -205 -165 -76 -36 -9 -0 -1 -0 -0 -0 -8 -16 -20 -27 -0 -0 -0 -3 -11 -28 -24 -18 -22 -25 -23 -28 -34 -20 -17 -10 -0 -0 -0 -0 -6 -44 -4 -0 -1 -6 -7 -7
-0 -0 -0 -35 -271 -184 -87 -57 -14 -20 -12 -17 -2 -0 -0 -0 -0 -0 -3 -10 -19 -24 -22 -22 -18 -17 -11 -0 -0 -19 -0 -0 -0 -0 -0 -6 -58 -7 -0 -1 -5 -5 -13
-0 -0 -0 -0 -0 -0 -42 -13 -171 -45 -39 -36 -1 -0 -9 -0 -0 -0 -0 -0 -0 -8 -0 -4 -2 -0 -0 -0 -0 -0 -0 -0 -0 -0 -0 -63 -89 -13 -0 -1 -2 -2 -10
-0 -0 -0 -0 -0 -0 -0 -0 -0 -0 -0 -167 -76 -29 -2 -5 -5 -1 -0 -0 -0 -0 -0 -0 -0 -0 -0 -0 -0 -0 -0 -0 -0 -0 -0 -39 -171 -25 -0 -0 -0 -0 -3
-0 -0 -0 -0 -0 -0 -0 -0 -0 -0 -0 -0 -0 -0 -63 -34 -10 -17 -11 -0 -0 -1 -0 -0 -5 -0 -1 -0 -0 -0 -0 -0 -0 -0 -0 -8 -67 -102 -5 -0 -0 -0 -0
-0 -0 -0 -0 -0 -0 -0 -0 -0 -0 -0 -0 -0 -0 -0 -0 -0 -11 -59 -35 -7 -0 -1 -0 -4 -0 -0 -0 -0 -0 -0 -0 -0 -0 -0 -2 -41 -67 -99 -6 -0 -0 -0
-0 -0 -0 -0 -0 -0 -0 -0 -0 -0 -0 -0 -0 -0 -0 -0 -0 -0 -0 -2 -11 -41 -0 -10 -0 -3 -0 -0 -0 -0 -0 -0 -0 -0 -0 -8 -14 -49 -47 -103 -17 -1 -2
-0 -0 -0 -0 -0 -0 -0 -0 -0 -0 -0 -0 -0 -0 -0 -0 -0 -0 -0 -0 -0 -0 -13 -36 -0 -0 -58 -21 -17 -5 -0 -0 -0 -0 -0 -0 -0 -1 -50 -67 -88 -27 -14
-0 -0 -0 -0 -0 -0 -0 -0 -0 -0 -0 -0 -0 -0 -0 -0 -0 -0 -0 -0 -0 -0 -0 -34 -11 -0 -31 -75 -0 -114 -168 -0 -0 -0 -0 -0 -0 -7 -1 -32 -50 -72 -37
-0 -0 -0 -0 -0 -0 -0 -0 -0 -0 -0 -0 -0 -0 -0 -0 -0 -0 -0 -0 -0 -0 -0 -0 -17 -30 -54 -51 -0 -0 -0 -16 -0 -0 -0 -0 -0 -0 -0 -2 -22 -38 -60
-0 -0 -0 -0 -0 -0 -0 -0 -0 -0 -0 -0 -0 -0 -0 -0 -0 -0 -0 -0 -0 -0 -0 -0 -0 -0 -78 -63 -0 -99 -46 -0 -0 -24 -4 -0 -0 -0 -0 -3 -0 -0 -9
-0 -0 -0 -0 -0 -0 -0 -0 -0 -0 -0 -0 -0 -0 -0 -0 -0 -0 -0 -0 -0 -0 -0 -0 -0 -0 -0 -33 -16 -0 -1 -1 -1 -0 -0 -0 -0 -0 -0 -0 -4 -6 -0
-0 -0 -0 -0 -0 -0 -0 -0 -0 -0 -0 -0 -0 -0 -0 -0 -0 -0 -0 -0 -0 -0 -0 -0 -0 -0 -0 -51 -0 -0 -1 -31 -2 -14 -0 -6 -0 -1 -5 -0 -1 -19 -1
-0 -0 -0 -0 -0 -0 -0 -0 -0 -0 -0 -0 -0 -0 -0 -0 -0 -0 -0 -0 -0 -0 -0 -0 -0 -0 -0 -0 -57 -3 -0 -1 -0 -1 -0 -0 -0 -3 -2 -5 -0 -12 -7
-0 -0 -0 -0 -0 -0 -0 -0 -0 -0 -0 -0 -0 -0 -0 -0 -0 -0 -0 -0 -0 -0 -0 -0 -0 -0 -0 -0 -0 -77 -0 -0 -0 -0 -0 -4 -0 -0 -1 -71 -1 -0 -0
-0 -0 -0 -0 -0 -0 -0 -0 -0 -0 -0 -0 -0 -0 -0 -0 -0 -0 -0 -0 -0 -0 -0 -0 -0 -0 -0 -0 -0 -0 -0 -7 -0 -0 -0 -0 -0 -0 -0 -10 -0 -0 -2
Wind_Speed
25 31 26 23 19 16 16 17 17 16 13 13 17 19 19 19 22 25 25 25 25 24 23 21 20 20 20 22 21 19 21 22 24 25 25 27 27 23 20 16 17 22 22
25 33 28 26 24 22 21 19 16 15 15 13 13 16 20 23 21 23 24 26 27 27 24 20 18 19 20 22 21 21 22 23 24 25 26 26 26 21 21 16 10 26 20
30 32 31 29 27 26 25 23 21 18 17 16 14 12 17 21 25 23 22 24 25 25 24 21 19 17 18 20 21 22 23 23 23 23 23 20 24 21 21 16 21 21 21
29 32 33 31 30 29 28 28 26 23 20 17 16 16 16 20 23 25 24 22 23 23 24 22 20 19 20 19 20 22 24 24 22 21 21 21 20 20 20 19 21 23 23
32 33 37 35 32 30 28 28 28 26 25 23 18 15 17 21 24 23 24 25 24 24 23 21 20 21 22 21 20 22 23 22 20 19 19 19 17 22 19 20 23 21 22
35 35 40 35 34 33 32 28 28 26 26 25 25 23 17 19 23 25 23 27 26 26 25 21 20 20 22 22 22 22 23 22 20 16 16 20 14 24 19 20 17 20 19
37 36 40 37 37 34 32 30 28 28 28 28 27 25 23 20 19 23 23 24 26 25 25 23 23 23 22 21 21 22 22 21 17 19 16 20 15 21 18 19 18 18 18
39 39 38 41 40 38 36 33 31 26 23 22 24 26 25 22 21 22 24 22 23 24 24 21 21 23 24 21 20 22 21 20 14 18 16 17 25 18 14 16 16 18 17
42 41 38 37 36 36 42 39 34 32 28 22 24 26 27 25 25 23 23 22 23 20 23 23 21 22 23 21 19 20 22 20 14 15 15 15 28 15 13 15 15 17 16
42 40 38 36 38 35 37 39 34 32 30 29 26 25 27 29 26 26 25 24 25 23 23 23 27 25 23 22 20 19 20 19 13 16 16 18 25 16 12 14 15 16 17
nan nan 38 38 37 35 37 36 36 36 29 29 30 34 30 28 27 27 28 28 30 28 26 27 26 28 27 25 22 23 21 17 18 17 15 31 24 18 14 12 14 17 19
nan nan nan nan nan 35 37 37 35 35 38 38 37 28 30 29 28 24 25 33 35 32 30 31 29 30 29 25 28 28 21 16 18 21 18 30 20 17 14 14 16 17 15
nan nan nan nan nan nan nan nan nan 34 35 39 41 38 34 31 30 31 31 31 34 36 33 35 34 31 26 27 28 29 26 21 21 22 22 33 21 14 13 14 15 16 16
nan nan nan nan nan nan nan nan nan nan nan nan 41 42 41 41 41 39 32 32 34 37 38 38 39 32 28 29 28 28 26 27 25 25 24 34 25 14 14 14 17 19 21
nan nan nan nan nan nan nan nan nan nan nan nan nan nan 49 50 48 47 43 41 35 36 34 37 38 42 36 33 34 31 29 27 24 28 26 35 29 21 17 13 15 18 21
nan nan nan nan nan nan nan nan nan nan nan nan nan nan nan nan nan 50 49 47 45 44 42 37 37 45 44 38 40 40 33 29 27 26 29 30 31 25 20 16 14 16 18
nan nan nan nan nan nan nan nan nan nan nan nan nan nan nan nan nan nan nan nan 52 51 46 51 53 53 41 35 35 41 46 35 32 27 29 30 33 29 23 19 19 18 17
nan nan nan nan nan nan nan nan nan nan nan nan nan nan nan nan nan nan nan nan nan nan nan 54 nan nan nan 46 nan nan 48 51 41 31 31 32 29 32 30 22 21 20 18
nan nan nan nan nan nan nan nan nan nan nan nan nan nan nan nan nan nan nan nan nan nan nan nan 60 nan nan nan nan nan nan 34 48 38 31 30 34 35 30 33 25 25 23
nan nan nan nan nan nan nan nan nan nan nan nan nan nan nan nan nan nan nan nan nan nan nan nan nan 60 nan nan nan nan nan nan 37 41 40 35 35 38 35 27 35 28 25
nan nan nan nan nan nan nan nan nan nan nan nan nan nan nan nan nan nan nan nan nan nan nan nan nan nan nan 64 nan nan 52 46 46 44 40 50 45 38 42 38 33 32 34
nan nan nan nan nan nan nan nan nan nan nan nan nan nan nan nan nan nan nan nan nan nan nan nan nan nan nan 67 66 64 57 50 48 41 38 24 32 43 45 46 31 33 28
nan nan nan nan nan nan nan nan nan nan nan nan nan nan nan nan nan nan nan nan nan nan nan nan nan nan nan nan 67 64 62 nan 51 48 42 41 31 39 47 50 43 35 30
nan nan nan nan nan nan nan nan nan nan nan nan nan nan nan nan nan nan nan nan nan nan nan nan nan nan nan nan nan 61 52 54 57 50 50 46 44 48 40 48 50 38 37
nan nan nan nan nan nan nan nan nan nan nan nan nan nan nan nan nan nan nan nan nan nan nan nan nan nan nan nan nan nan 59 53 49 53 52 51 51 50 48 37 50 47 44
nan nan nan nan nan nan nan nan nan nan nan nan nan nan nan nan nan nan nan nan nan nan nan nan nan nan nan nan nan nan nan nan 55 54 53 48 50 53 50 56 38 57 53
Wind_Direction
275 286 293 296 295 287 282 285 291 296 303 318 322 319 319 318 319 317 319 316 317 316 316 304 295 293 291 295 300 301 302 305 310 312 317 318 320 319 317 321 343 310 313
282 298 293 293 297 300 297 290 287 292 298 305 308 315 319 317 315 313 314 315 315 320 319 317 310 298 293 291 294 296 299 306 309 313 316 319 324 321 317 329 353 301 309
289 301 300 294 297 301 304 305 302 300 306 309 304 301 305 310 311 308 306 309 313 318 319 322 322 311 300 299 298 294 299 305 310 317 327 319 328 325 322 319 299 303 304
294 299 297 295 297 301 304 305 303 303 300 303 309 303 294 298 300 303 304 302 306 311 314 325 326 316 305 300 302 302 302 305 312 322 336 328 328 324 323 324 316 316 309
289 290 288 288 289 291 293 296 301 304 303 301 298 297 298 291 290 292 298 299 299 302 312 320 322 315 309 311 311 308 308 312 316 334 326 317 309 316 324 327 325 321 320
277 276 282 279 279 283 286 288 293 298 301 303 304 298 292 297 293 291 291 293 296 302 308 314 313 309 312 316 315 313 313 312 317 336 316 303 326 313 325 325 330 324 315
266 268 272 271 271 272 276 282 289 293 298 299 298 295 290 284 289 290 289 290 297 302 308 309 310 309 309 310 312 312 312 311 328 307 318 317 333 316 322 327 319 319 321
255 252 252 267 274 276 275 274 278 277 281 291 293 290 287 287 286 286 293 296 298 302 304 304 303 306 309 308 310 307 306 310 317 305 314 317 294 312 317 314 316 315 323
254 254 255 258 255 258 279 272 275 277 277 282 291 291 290 283 284 288 290 293 292 295 298 295 296 301 305 307 306 301 300 307 311 296 305 310 298 314 309 305 307 311 319
259 258 255 256 256 257 262 255 264 268 273 278 286 290 288 288 285 283 287 288 282 284 284 286 291 294 296 301 299 294 293 290 304 295 296 293 298 321 312 302 306 307 301
nan nan 254 253 253 254 260 261 263 258 265 280 290 292 295 293 291 298 290 275 284 280 281 280 284 289 291 293 292 289 286 287 296 279 277 282 295 315 315 295 295 300 301
nan nan nan nan nan 254 261 260 263 269 273 267 261 263 282 288 287 279 274 288 277 274 274 276 279 277 282 284 288 289 280 282 281 277 273 277 288 313 311 293 289 297 298
nan nan nan nan nan nan nan nan nan 271 267 270 265 266 259 274 283 290 287 281 278 284 276 276 275 274 279 276 275 274 281 273 264 269 273 279 284 303 311 299 290 294 290
nan nan nan nan nan nan nan nan nan nan nan nan 266 264 266 271 268 270 274 281 277 274 280 278 276 272 269 271 269 269 270 271 263 263 268 282 284 291 305 302 298 295 294
nan nan nan nan nan nan nan nan nan nan nan nan nan nan 262 265 266 266 264 262 268 275 279 280 283 277 273 274 274 269 266 267 262 260 263 281 280 280 289 297 303 303 298
nan nan nan nan nan nan nan nan nan nan nan nan nan nan nan nan nan 265 263 264 258 258 262 278 275 273 268 272 274 271 263 258 260 258 259 268 280 278 281 288 290 297 302
nan nan nan nan nan nan nan nan nan nan nan nan nan nan nan nan nan nan nan nan 263 259 262 265 257 273 249 270 273 267 286 270 254 251 253 258 272 275 270 278 285 292 298
nan nan nan nan nan nan nan nan nan nan nan nan nan nan nan nan nan nan nan nan nan nan nan 266 nan nan nan 267 nan nan 281 260 262 244 249 253 256 262 274 272 276 271 279
nan nan nan nan nan nan nan nan nan nan nan nan nan nan nan nan nan nan nan nan nan nan nan nan 268 nan nan nan nan nan nan 263 255 252 244 247 252 256 257 275 276 272 267
nan nan nan nan nan nan nan nan nan nan nan nan nan nan nan nan nan nan nan nan nan nan nan nan nan 265 nan nan nan nan nan nan 269 293 252 247 248 258 257 254 265 262 273
nan nan nan nan nan nan nan nan nan nan nan nan nan nan nan nan nan nan nan nan nan nan nan nan nan nan nan 267 nan nan 262 263 267 273 281 278 278 263 259 255 256 254 264
nan nan nan nan nan nan nan nan nan nan nan nan nan nan nan nan nan nan nan nan nan nan nan nan nan nan nan 267 268 264 263 267 267 270 270 275 284 267 266 257 250 258 249
nan nan nan nan nan nan nan nan nan nan nan nan nan nan nan nan nan nan nan nan nan nan nan nan nan nan nan nan 270 266 265 nan 265 265 273 270 264 275 282 264 252 249 250
nan nan nan nan nan nan nan nan nan nan nan nan nan nan nan nan nan nan nan nan nan nan nan nan nan nan nan nan nan 264 260 255 258 265 265 268 270 270 279 285 249 236 252
nan nan nan nan nan nan nan nan nan nan nan nan nan nan nan nan nan nan nan nan nan nan nan nan nan nan nan nan nan nan 256 257 253 251 253 265 266 264 261 285 261 233 237
nan nan nan nan nan nan nan nan nan nan nan nan nan nan nan nan nan nan nan nan nan nan nan nan nan nan nan nan nan nan nan nan 250 252 253 254 258 265 262 261 276 245 231